TimeCET,TemperatureF,Dew PointF,Humidity,Sea Level PressureIn,VisibilityMPH,Wind Direction,Wind SpeedMPH,Gust SpeedMPH,PrecipitationIn,Events,Conditions,WindDirDegrees,DateUTC
12:00 AM,35.6,24.8,65,30.18,6.2,NW,6.9,-,N/A,,Mostly Cloudy,320,2013-03-03 23:00:00
12:30 AM,33.8,24.8,70,30.18,6.2,NW,5.8,-,N/A,,Mostly Cloudy,320,2013-03-03 23:30:00
1:00 AM,34,24,55,30.24,12,NW,6.7,,,,Partly Cloudy,320,2013-03-04 00:00:00
1:00 AM,33.8,24.8,70,30.18,6.2,NW,6.9,-,N/A,,Scattered Clouds,320,2013-03-04 00:00:00
1:30 AM,33.8,24.8,70,30.18,6.2,NW,8.1,-,N/A,,Partly Cloudy,320,2013-03-04 00:30:00
2:00 AM,32.0,24.8,75,30.18,6.2,NW,6.9,-,N/A,,Partly Cloudy,320,2013-03-04 01:00:00
2:30 AM,32.0,24.8,75,30.18,6.2,NW,8.1,-,N/A,,Partly Cloudy,310,2013-03-04 01:30:00
3:00 AM,32.0,24.8,75,30.18,6.2,NW,8.1,-,N/A,,Partly Cloudy,310,2013-03-04 02:00:00
3:30 AM,30.2,24.8,80,30.18,6.2,NW,9.2,-,N/A,,Partly Cloudy,320,2013-03-04 02:30:00
4:00 AM,32.0,24.8,75,30.18,6.2,NW,9.2,-,N/A,,Partly Cloudy,320,2013-03-04 03:00:00
4:30 AM,30.2,23.0,75,30.18,6.2,NW,5.8,-,N/A,,Scattered Clouds,320,2013-03-04 03:30:00
5:00 AM,30.2,24.8,80,30.18,6.2,NW,6.9,-,N/A,,Mostly Cloudy,320,2013-03-04 04:00:00
5:30 AM,32.0,24.8,75,30.21,6.2,NNW,10.4,-,N/A,,Scattered Clouds,340,2013-03-04 04:30:00
6:00 AM,30.2,24.8,80,30.21,6.2,North,6.9,-,N/A,,Scattered Clouds,350,2013-03-04 05:00:00
6:30 AM,30.2,24.8,80,30.21,-9999.0,NNW,5.8,-,N/A,,Clear,330,2013-03-04 05:30:00
7:00 AM,30,24,69,30.29,9,SSE,2.2,,,,Scattered Clouds,160,2013-03-04 06:00:00
7:00 AM,30.2,24.8,80,30.21,-9999.0,Variable,2.3,-,N/A,,Clear,0,2013-03-04 06:00:00
7:30 AM,30.2,24.8,80,30.24,-9999.0,Variable,2.3,-,N/A,,Clear,0,2013-03-04 06:30:00
8:00 AM,32.0,26.6,80,30.24,-9999.0,Variable,1.2,-,N/A,,Clear,0,2013-03-04 07:00:00
8:30 AM,35.6,26.6,70,30.24,-9999.0,Variable,2.3,-,N/A,,Clear,0,2013-03-04 07:30:00
9:00 AM,35.6,26.6,70,30.27,-9999.0,Variable,2.3,-,N/A,,Clear,0,2013-03-04 08:00:00
9:30 AM,37.4,26.6,65,30.27,-9999.0,ENE,3.5,-,N/A,,Clear,70,2013-03-04 08:30:00
10:00 AM,39.2,26.6,61,30.27,6.2,ENE,3.5,-,N/A,,Partly Cloudy,70,2013-03-04 09:00:00
10:30 AM,39.2,26.6,61,30.27,6.2,East,5.8,-,N/A,,Partly Cloudy,90,2013-03-04 09:30:00
11:00 AM,39.2,26.6,61,30.27,6.2,East,4.6,-,N/A,,Partly Cloudy,80,2013-03-04 10:00:00
11:30 AM,41.0,24.8,53,30.27,6.2,East,5.8,-,N/A,,Partly Cloudy,100,2013-03-04 10:30:00
12:00 PM,41.0,24.8,53,30.27,6.2,ESE,4.6,-,N/A,,Partly Cloudy,110,2013-03-04 11:00:00
12:30 PM,42.8,24.8,49,30.27,-9999.0,Variable,4.6,-,N/A,,Clear,0,2013-03-04 11:30:00
1:00 PM,43,20,26,30.29,22,ESE,6.7,,,,Scattered Clouds,110,2013-03-04 12:00:00
1:00 PM,42.8,19.4,39,30.24,-9999.0,ESE,5.8,-,N/A,,Clear,110,2013-03-04 12:00:00
1:30 PM,44.6,21.2,39,30.24,-9999.0,East,6.9,-,N/A,,Clear,100,2013-03-04 12:30:00
2:00 PM,44.6,19.4,37,30.24,-9999.0,East,6.9,-,N/A,,Clear,80,2013-03-04 13:00:00
2:30 PM,44.6,17.6,34,30.24,-9999.0,ENE,6.9,-,N/A,,Clear,70,2013-03-04 13:30:00
3:00 PM,44.6,21.2,39,30.24,-9999.0,ENE,5.8,-,N/A,,Clear,60,2013-03-04 14:00:00
3:30 PM,44.6,21.2,39,30.24,-9999.0,ENE,6.9,-,N/A,,Clear,60,2013-03-04 14:30:00
4:00 PM,44.6,23.0,43,30.21,-9999.0,ENE,6.9,-,N/A,,Clear,60,2013-03-04 15:00:00
4:30 PM,42.8,24.8,49,30.21,-9999.0,ENE,9.2,-,N/A,,Clear,60,2013-03-04 15:30:00
5:00 PM,42.8,26.6,53,30.21,-9999.0,ENE,8.1,-,N/A,,Clear,60,2013-03-04 16:00:00
5:30 PM,41.0,24.8,53,30.21,-9999.0,ENE,6.9,-,N/A,,Clear,60,2013-03-04 16:30:00
6:00 PM,39.2,24.8,56,30.21,-9999.0,ENE,6.9,-,N/A,,Clear,60,2013-03-04 17:00:00
6:30 PM,39.2,24.8,56,30.24,-9999.0,ENE,6.9,-,N/A,,Clear,60,2013-03-04 17:30:00
7:00 PM,37,24,46,30.29,22,ENE,6.7,,,,,60,2013-03-04 18:00:00
7:00 PM,37.4,24.8,60,30.24,-9999.0,ENE,5.8,-,N/A,,Clear,60,2013-03-04 18:00:00
7:30 PM,37.4,24.8,60,30.24,-9999.0,ENE,5.8,-,N/A,,Clear,60,2013-03-04 18:30:00
8:00 PM,35.6,24.8,65,30.24,-9999.0,ENE,6.9,-,N/A,,Clear,60,2013-03-04 19:00:00
8:30 PM,35.6,23.0,60,30.24,-9999.0,ENE,6.9,-,N/A,,Clear,60,2013-03-04 19:30:00
9:00 PM,33.8,24.8,70,30.24,-9999.0,ENE,6.9,-,N/A,,Clear,70,2013-03-04 20:00:00
9:30 PM,32.0,24.8,75,30.24,-9999.0,ENE,6.9,-,N/A,,Clear,70,2013-03-04 20:30:00
10:00 PM,33.8,24.8,70,30.24,-9999.0,ENE,6.9,-,N/A,,Clear,70,2013-03-04 21:00:00
10:30 PM,33.8,24.8,70,30.24,-9999.0,ENE,6.9,-,N/A,,Clear,70,2013-03-04 21:30:00
11:00 PM,33.8,23.0,65,30.24,-9999.0,ENE,6.9,-,N/A,,Clear,70,2013-03-04 22:00:00
11:30 PM,33.8,23.0,65,30.24,-9999.0,ENE,8.1,-,N/A,,Clear,70,2013-03-04 22:30:00